Flag for U.S.A. Weather past 2 weeks in Baltimore, Maryland, U.S.A.

Now
54 °F

Partly sunny.


Feels Like: 51 °F
Forecast: 48 / 61 °F
Wind: 12 mph from Northwest

Location: Baltimore-Washington International Airport

Current Time: Oct 23, 2014 at 9:19:39 AM

Latest Report: Oct 23, 2014 at 8:54 AM


Visibility: 10 mi

Pressure: 29.85 "Hg

Humidity: 67%

Dew point: 43 °F

Location of BaltimoreLocation

Historic Weather in Baltimore — Graph

°F

Baltimore temperature yesterday

Maximum temperature yesterday: 54 °F (at 10:54 AM)
Minimum temperature yesterday: 53 °F (at 12:54 AM)
Average temperature yesterday: 54 °F

Past Weeks' High & Low Weather Summary

 TemperatureHumidityPressure
High77 °F (Oct 14, 2:54 PM)100% (Oct 13, 10:54 PM)30.29 "Hg (Oct 13, 10:54 PM)
Low36 °F (Oct 20, 5:54 AM)31% (Oct 19, 4:54 PM)29.62 "Hg (Oct 18, 4:54 AM)
Average59 °F75%29.96 "Hg
* Reported Oct 8 7:54 AM — Oct 23 7:54 AM, Baltimore, Weather by CustomWeather, © 2014

Note: Actual official high and low records may vary slightly from our data, if they occured in-between our weather recording intervals... More about our weather records

Advertising

Baltimore weather history for previous 24 hours

 ConditionsComfort  
Time TempWeatherWind HumidityBarometerVisibility
7:54 AM
Oct 23
53 °FPartly cloudy.10 mph69%29.85 "Hg10 mi
6:54 AM53 °FPassing clouds.12 mph69%29.85 "Hg10 mi
5:54 AM52 °FPassing clouds.10 mph72%29.85 "Hg10 mi
4:54 AM52 °FOvercast.10 mph69%29.85 "Hg9 mi
3:54 AM52 °FOvercast.12 mph69%29.84 "Hg10 mi
2:54 AM52 °FMostly cloudy.14 mph69%29.85 "Hg10 mi
1:54 AM52 °FOvercast.12 mph72%29.87 "Hg10 mi
12:54 AM53 °FOvercast.12 mph69%29.88 "Hg10 mi
11:54 PM
Oct 22
53 °FPartly cloudy.15 mph69%29.89 "Hg10 mi
10:54 PM54 °FPassing clouds.12 mph69%29.91 "Hg10 mi
9:54 PM54 °FPassing clouds.13 mph69%29.91 "Hg10 mi
8:54 PM54 °FMostly cloudy.14 mph72%29.92 "Hg10 mi
7:54 PM54 °FMostly cloudy.9 mph74%29.91 "Hg10 mi
6:54 PM54 °FLight rain. More clouds than sun.9 mph77%29.91 "Hg10 mi
5:54 PM54 °FLight rain. Mostly cloudy.15 mph77%29.90 "Hg10 mi
4:54 PM54 °FLight rain. More clouds than sun.10 mph83%29.90 "Hg10 mi
3:54 PM54 °FLight rain. More clouds than sun.9 mph86%29.90 "Hg10 mi
2:54 PM54 °FLight rain. Mostly cloudy.12 mph90%29.90 "Hg9 mi
1:54 PM54 °FRain. Fog.10 mph90%29.90 "Hg6 mi
12:54 PM54 °FLight rain. Fog.10 mph90%29.90 "Hg5 mi
11:54 AM54 °FFog.10 mph90%29.91 "Hg6 mi
10:54 AM54 °FLight rain. Fog.13 mph90%29.91 "Hg5 mi
9:54 AM53 °FRain. Fog.9 mph93%29.90 "Hg3 mi
Weather by CustomWeather, © 2014

See weather overviewHow to use our weather pages